Time,TemperatureF,DewpointF,PressureIn,WindDirection,WindDirectionDegrees,WindSpeedMPH,WindSpeedGustMPH,Humidity,HourlyPrecipIn,Conditions,Clouds,dailyrainin,SoftwareType,DateUTC
2013-10-28 12:00:00,78.0,-99.9,30.12,ENE,60,23.0,24.0,-999,-99.99,,,-99.99,,2013-10-28 16:00:00,
2013-10-28 12:43:00,78.0,-99.9,30.12,ENE,60,23.0,24.0,-999,-99.99,,,-99.99,,2013-10-28 16:43:00,
2013-10-28 12:53:00,78.0,-99.9,30.12,ENE,60,23.0,24.0,-999,-99.99,,,-99.99,,2013-10-28 16:53:00,
2013-10-28 13:00:00,79.0,-99.9,30.10,ENE,70,21.0,23.0,-999,-99.99,,,-99.99,,2013-10-28 17:00:00,
2013-10-28 13:42:00,79.0,-99.9,30.10,ENE,70,21.0,23.0,-999,-99.99,,,-99.99,,2013-10-28 17:42:00,
2013-10-28 13:52:00,79.0,-99.9,30.10,ENE,70,21.0,23.0,-999,-99.99,,,-99.99,,2013-10-28 17:52:00,
2013-10-28 14:00:00,79.0,-99.9,30.08,ENE,60,18.0,21.0,-999,-99.99,,,-99.99,,2013-10-28 18:00:00,
2013-10-28 14:42:00,79.0,-99.9,30.08,ENE,60,18.0,21.0,-999,-99.99,,,-99.99,,2013-10-28 18:42:00,
2013-10-28 14:52:00,79.0,-99.9,30.08,ENE,60,18.0,21.0,-999,-99.99,,,-99.99,,2013-10-28 18:52:00,
2013-10-28 15:00:00,79.0,-99.9,30.07,ENE,60,17.0,18.0,-999,-99.99,,,-99.99,,2013-10-28 19:00:00,
2013-10-28 15:22:00,79.0,-99.9,30.07,ENE,60,17.0,18.0,-999,-99.99,,,-99.99,,2013-10-28 19:22:00,
2013-10-28 15:33:00,79.0,-99.9,30.07,ENE,60,17.0,18.0,-999,-99.99,,,-99.99,,2013-10-28 19:33:00,
2013-10-28 15:42:00,79.0,-99.9,30.07,ENE,60,17.0,18.0,-999,-99.99,,,-99.99,,2013-10-28 19:42:00,
2013-10-28 15:53:00,79.0,-99.9,30.07,ENE,60,17.0,18.0,-999,-99.99,,,-99.99,,2013-10-28 19:53:00,
2013-10-28 16:00:00,80.0,-99.9,30.06,ENE,60,21.0,23.0,-999,-99.99,,,-99.99,,2013-10-28 20:00:00,
2013-10-28 16:42:00,80.0,-99.9,30.06,ENE,60,21.0,23.0,-999,-99.99,,,-99.99,,2013-10-28 20:42:00,
2013-10-28 16:52:00,80.0,-99.9,30.06,ENE,60,21.0,23.0,-999,-99.99,,,-99.99,,2013-10-28 20:52:00,
2013-10-28 17:00:00,81.0,-99.9,30.07,ENE,70,22.0,23.0,-999,-99.99,,,-99.99,,2013-10-28 21:00:00,
2013-10-28 17:22:00,81.0,-99.9,30.07,ENE,70,22.0,23.0,-999,-99.99,,,-99.99,,2013-10-28 21:22:00,
2013-10-28 17:34:00,81.0,-99.9,30.07,ENE,70,22.0,23.0,-999,-99.99,,,-99.99,,2013-10-28 21:34:00,
2013-10-28 17:43:00,81.0,-99.9,30.07,ENE,70,22.0,23.0,-999,-99.99,,,-99.99,,2013-10-28 21:43:00,
2013-10-28 17:54:00,81.0,-99.9,30.07,ENE,70,22.0,23.0,-999,-99.99,,,-99.99,,2013-10-28 21:54:00,
2013-10-28 18:00:00,81.0,-99.9,30.08,ENE,70,20.0,21.0,-999,-99.99,,,-99.99,,2013-10-28 22:00:00,
2013-10-28 18:43:00,81.0,-99.9,30.08,ENE,70,20.0,21.0,-999,-99.99,,,-99.99,,2013-10-28 22:43:00,
2013-10-28 18:53:00,81.0,-99.9,30.08,ENE,70,20.0,21.0,-999,-99.99,,,-99.99,,2013-10-28 22:53:00,